Time,TemperatureF,DewpointF,PressureIn,WindDirection,WindDirectionDegrees,WindSpeedMPH,WindSpeedGustMPH,Humidity,HourlyPrecipIn,Conditions,Clouds,dailyrainin,SoftwareType,DateUTC
2013-04-15 00:00:00,34.7,27.6,29.71,West,274,7.0,7.0,75,0.00,,,0.05,Wunderground v.1.15,2013-04-15 05:00:00,
2013-04-15 00:10:00,34.9,27.1,29.72,West,259,7.0,15.0,73,0.00,,,0.05,Wunderground v.1.15,2013-04-15 05:10:00,
2013-04-15 00:15:00,35.0,27.2,29.72,West,268,7.0,15.0,73,0.00,,,0.05,Wunderground v.1.15,2013-04-15 05:15:00,
2013-04-15 00:25:00,35.2,27.1,29.73,West,264,8.0,15.0,72,0.00,,,0.05,Wunderground v.1.15,2013-04-15 05:25:00,
2013-04-15 00:35:00,35.1,27.3,29.73,West,263,7.0,15.0,73,0.00,,,0.05,Wunderground v.1.15,2013-04-15 05:35:00,
2013-04-15 00:40:00,34.9,27.1,29.73,WSW,256,7.0,15.0,73,0.00,,,0.05,Wunderground v.1.15,2013-04-15 05:40:00,
2013-04-15 00:50:00,34.9,27.5,29.74,West,262,8.0,8.0,74,0.00,,,0.05,Wunderground v.1.15,2013-04-15 05:50:00,
2013-04-15 01:00:00,35.1,28.0,29.74,West,271,9.0,9.0,75,0.00,,,0.05,Wunderground v.1.15,2013-04-15 06:00:00,
2013-04-15 01:10:00,35.2,28.1,29.74,West,269,9.0,15.0,75,0.00,,,0.00,Wunderground v.1.15,2013-04-15 06:10:00,
2013-04-15 01:20:00,35.4,28.3,29.73,West,263,11.0,11.0,75,0.00,,,0.00,Wunderground v.1.15,2013-04-15 06:20:00,
2013-04-15 01:25:00,35.3,28.2,29.74,West,269,11.0,15.0,75,0.00,,,0.00,Wunderground v.1.15,2013-04-15 06:25:00,
2013-04-15 01:35:00,35.5,27.4,29.74,West,280,16.0,21.0,72,0.00,,,0.00,Wunderground v.1.15,2013-04-15 06:35:00,
2013-04-15 01:45:00,35.2,26.4,29.73,WNW,296,17.0,17.0,70,0.00,,,0.00,Wunderground v.1.15,2013-04-15 06:45:00,
2013-04-15 01:50:00,35.1,25.6,29.73,West,266,17.0,17.0,68,0.00,,,0.00,Wunderground v.1.15,2013-04-15 06:50:00,
2013-04-15 02:00:00,34.5,25.0,29.73,WNW,292,15.0,18.0,68,0.00,,,0.00,Wunderground v.1.15,2013-04-15 07:00:00,
2013-04-15 02:05:00,34.3,24.8,29.74,WNW,300,14.0,18.0,68,0.00,,,0.00,Wunderground v.1.15,2013-04-15 07:05:00,
2013-04-15 02:45:00,33.1,24.4,29.74,West,277,15.0,15.0,70,0.00,,,0.00,Wunderground v.1.15,2013-04-15 07:45:00,
2013-04-15 02:50:00,33.0,23.6,29.73,West,261,15.0,15.0,68,0.00,,,0.00,Wunderground v.1.15,2013-04-15 07:50:00,
2013-04-15 02:55:00,32.9,22.4,29.73,WNW,296,17.0,17.0,65,0.00,,,0.00,Wunderground v.1.15,2013-04-15 07:55:00,
2013-04-15 03:00:00,32.6,22.1,29.74,WNW,283,18.0,18.0,65,0.00,,,0.00,Wunderground v.1.15,2013-04-15 08:00:00,
2013-04-15 03:10:00,32.2,22.8,29.73,NW,309,15.0,18.0,68,0.00,,,0.00,Wunderground v.1.15,2013-04-15 08:10:00,
2013-04-15 03:15:00,32.0,22.3,29.74,West,280,13.0,23.0,67,0.00,,,0.00,Wunderground v.1.15,2013-04-15 08:15:00,
2013-04-15 03:20:00,31.7,20.5,29.73,WNW,290,16.0,19.0,63,0.00,,,0.00,Wunderground v.1.15,2013-04-15 08:20:00,
2013-04-15 03:25:00,31.4,20.2,29.73,WNW,290,17.0,19.0,63,0.00,,,0.00,Wunderground v.1.15,2013-04-15 08:25:00,
2013-04-15 03:30:00,31.3,20.2,29.74,WNW,300,17.0,17.0,63,0.00,,,0.00,Wunderground v.1.15,2013-04-15 08:30:00,
2013-04-15 03:40:00,31.0,19.9,29.75,NW,304,17.0,21.0,63,0.00,,,0.00,Wunderground v.1.15,2013-04-15 08:40:00,
2013-04-15 03:50:00,30.9,19.0,29.75,WNW,294,19.0,22.0,61,0.00,,,0.00,Wunderground v.1.15,2013-04-15 08:50:00,
2013-04-15 04:00:00,30.6,19.5,29.76,West,273,17.0,17.0,63,0.00,,,0.00,Wunderground v.1.15,2013-04-15 09:00:00,
2013-04-15 04:10:00,30.3,19.6,29.76,WNW,284,15.0,16.0,64,0.00,,,0.00,Wunderground v.1.15,2013-04-15 09:10:00,
2013-04-15 04:15:00,30.2,19.8,29.77,WNW,285,14.0,16.0,65,0.00,,,0.00,Wunderground v.1.15,2013-04-15 09:15:00,
2013-04-15 04:25:00,30.1,19.4,29.78,WNW,284,14.0,17.0,64,0.00,,,0.00,Wunderground v.1.15,2013-04-15 09:25:00,
2013-04-15 04:30:00,29.9,19.6,29.78,West,279,13.0,16.0,65,0.00,,,0.00,Wunderground v.1.15,2013-04-15 09:30:00,
2013-04-15 04:40:00,29.7,19.7,29.79,West,279,15.0,17.0,66,0.00,,,0.00,Wunderground v.1.15,2013-04-15 09:40:00,
2013-04-15 04:45:00,29.4,19.8,29.79,WNW,293,19.0,25.0,67,0.00,,,0.00,Wunderground v.1.15,2013-04-15 09:45:00,
2013-04-15 04:55:00,29.2,19.9,29.79,West,278,19.0,20.0,68,0.00,,,0.00,Wunderground v.1.15,2013-04-15 09:55:00,
2013-04-15 05:00:00,29.1,19.8,29.81,West,279,17.0,17.0,68,0.00,,,0.00,Wunderground v.1.15,2013-04-15 10:00:00,
2013-04-15 05:10:00,28.8,20.2,29.80,WNW,289,15.0,15.0,70,0.00,,,0.00,Wunderground v.1.15,2013-04-15 10:10:00,
2013-04-15 05:20:00,28.5,20.0,29.81,WSW,255,11.0,15.0,70,0.00,,,0.00,Wunderground v.1.15,2013-04-15 10:20:00,
2013-04-15 05:25:00,28.5,20.3,29.80,West,278,12.0,17.0,71,0.00,,,0.00,Wunderground v.1.15,2013-04-15 10:25:00,
2013-04-15 05:35:00,28.4,20.5,29.81,West,276,15.0,16.0,72,0.00,,,0.00,Wunderground v.1.15,2013-04-15 10:35:00,
2013-04-15 05:40:00,28.3,20.4,29.81,West,275,16.0,17.0,72,0.00,,,0.00,Wunderground v.1.15,2013-04-15 10:40:00,
2013-04-15 05:50:00,28.3,20.1,29.83,West,261,15.0,15.0,71,0.00,,,0.00,Wunderground v.1.15,2013-04-15 10:50:00,
2013-04-15 06:00:00,28.1,20.2,29.83,WNW,283,15.0,21.0,72,0.00,,,0.00,Wunderground v.1.15,2013-04-15 11:00:00,
2013-04-15 06:10:00,27.9,20.4,29.82,WNW,298,14.0,21.0,73,0.00,,,0.00,Wunderground v.1.15,2013-04-15 11:10:00,
2013-04-15 06:15:00,28.0,20.5,29.81,NW,304,14.0,21.0,73,0.00,,,0.00,Wunderground v.1.15,2013-04-15 11:15:00,
2013-04-15 06:25:00,28.0,20.8,29.80,NW,311,12.0,21.0,74,0.00,,,0.00,Wunderground v.1.15,2013-04-15 11:25:00,
2013-04-15 06:35:00,28.2,21.0,29.80,WNW,300,11.0,13.0,74,0.00,,,0.00,Wunderground v.1.15,2013-04-15 11:35:00,
2013-04-15 06:40:00,28.4,21.5,29.81,WNW,302,11.0,21.0,75,0.00,,,0.00,Wunderground v.1.15,2013-04-15 11:40:00,
2013-04-15 06:50:00,28.7,21.5,29.81,WNW,288,14.0,14.0,74,0.00,,,0.00,Wunderground v.1.15,2013-04-15 11:50:00,
2013-04-15 07:00:00,28.8,21.6,29.81,WNW,301,14.0,14.0,74,0.00,,,0.00,Wunderground v.1.15,2013-04-15 12:00:00,
2013-04-15 07:10:00,29.0,21.7,29.83,WNW,287,15.0,15.0,74,0.00,,,0.00,Wunderground v.1.15,2013-04-15 12:10:00,
2013-04-15 07:20:00,29.1,21.8,29.83,WNW,291,14.0,21.0,74,0.00,,,0.00,Wunderground v.1.15,2013-04-15 12:20:00,
2013-04-15 07:25:00,29.1,21.8,29.83,WNW,284,14.0,21.0,74,0.00,,,0.00,Wunderground v.1.15,2013-04-15 12:25:00,
2013-04-15 07:30:00,29.1,21.8,29.83,WNW,289,14.0,21.0,74,0.00,,,0.00,Wunderground v.1.15,2013-04-15 12:30:00,
2013-04-15 07:40:00,29.4,22.1,29.84,WNW,285,14.0,14.0,74,0.00,,,0.00,Wunderground v.1.15,2013-04-15 12:40:00,
2013-04-15 07:50:00,29.8,22.5,29.85,WNW,293,14.0,21.0,74,0.00,,,0.00,Wunderground v.1.15,2013-04-15 12:50:00,
2013-04-15 08:00:00,29.9,22.6,29.85,NW,308,16.0,21.0,74,0.00,,,0.00,Wunderground v.1.15,2013-04-15 13:00:00,
2013-04-15 08:10:00,30.0,22.4,29.85,WNW,296,16.0,21.0,73,0.00,,,0.00,Wunderground v.1.15,2013-04-15 13:10:00,
2013-04-15 08:20:00,30.3,22.7,29.86,WNW,298,15.0,15.0,73,0.00,,,0.00,Wunderground v.1.15,2013-04-15 13:20:00,
2013-04-15 08:30:00,30.4,22.4,29.86,WNW,289,15.0,15.0,72,0.00,,,0.00,Wunderground v.1.15,2013-04-15 13:30:00,
2013-04-15 08:35:00,30.5,22.9,29.86,NW,307,15.0,21.0,73,0.00,,,0.00,Wunderground v.1.15,2013-04-15 13:35:00,
2013-04-15 08:45:00,31.0,24.9,29.88,WNW,301,16.0,16.0,78,0.00,,,0.00,Wunderground v.1.15,2013-04-15 13:45:00,
2013-04-15 08:50:00,31.2,23.2,29.88,West,279,15.0,21.0,72,0.00,,,0.00,Wunderground v.1.15,2013-04-15 13:50:00,
2013-04-15 09:00:00,31.4,23.4,29.89,West,280,15.0,22.0,72,0.00,,,0.00,Wunderground v.1.15,2013-04-15 14:00:00,
2013-04-15 09:10:00,31.9,23.6,29.91,NW,304,15.0,21.0,71,0.00,,,0.00,Wunderground v.1.15,2013-04-15 14:10:00,
2013-04-15 09:20:00,31.7,23.4,29.91,WNW,283,16.0,16.0,71,0.00,,,0.00,Wunderground v.1.15,2013-04-15 14:20:00,
2013-04-15 09:30:00,31.7,23.7,29.90,WNW,282,16.0,21.0,72,0.00,,,0.00,Wunderground v.1.15,2013-04-15 14:30:00,
2013-04-15 09:35:00,31.7,23.4,29.91,WNW,288,17.0,22.0,71,0.00,,,0.00,Wunderground v.1.15,2013-04-15 14:35:00,
2013-04-15 09:45:00,31.9,23.6,29.92,WNW,289,16.0,21.0,71,0.00,,,0.00,Wunderground v.1.15,2013-04-15 14:45:00,
2013-04-15 09:55:00,32.1,23.4,29.93,WNW,299,14.0,21.0,70,0.00,,,0.00,Wunderground v.1.15,2013-04-15 14:55:00,
2013-04-15 10:05:00,32.2,23.8,29.93,NW,304,17.0,21.0,71,0.00,,,0.00,Wunderground v.1.15,2013-04-15 15:05:00,
2013-04-15 10:10:00,32.4,23.7,29.93,WNW,299,16.0,16.0,70,0.00,,,0.00,Wunderground v.1.15,2013-04-15 15:10:00,
2013-04-15 10:20:00,32.9,24.2,29.95,NW,317,15.0,15.0,70,0.00,,,0.00,Wunderground v.1.15,2013-04-15 15:20:00,
2013-04-15 10:30:00,32.9,24.2,29.95,WNW,286,13.0,13.0,70,0.00,,,0.00,Wunderground v.1.15,2013-04-15 15:30:00,
2013-04-15 10:40:00,32.8,24.1,29.96,WNW,283,15.0,21.0,70,0.00,,,0.00,Wunderground v.1.15,2013-04-15 15:40:00,
2013-04-15 10:50:00,33.2,24.1,29.97,WNW,288,16.0,21.0,69,0.00,,,0.00,Wunderground v.1.15,2013-04-15 15:50:00,
2013-04-15 10:55:00,33.3,24.6,29.98,WNW,285,15.0,21.0,70,0.00,,,0.00,Wunderground v.1.15,2013-04-15 15:55:00,
2013-04-15 11:00:00,33.3,24.2,29.98,WNW,286,15.0,21.0,69,0.00,,,0.00,Wunderground v.1.15,2013-04-15 16:00:00,
2013-04-15 11:10:00,33.5,24.4,29.98,WNW,293,15.0,15.0,69,0.00,,,0.00,Wunderground v.1.15,2013-04-15 16:10:00,
2013-04-15 11:20:00,33.8,24.4,29.97,NW,311,16.0,16.0,68,0.00,,,0.00,Wunderground v.1.15,2013-04-15 16:20:00,
2013-04-15 11:30:00,34.3,25.2,29.98,NW,308,13.0,13.0,69,0.00,,,0.00,Wunderground v.1.15,2013-04-15 16:30:00,
2013-04-15 11:35:00,34.5,25.0,29.98,NW,315,13.0,21.0,68,0.00,,,0.00,Wunderground v.1.15,2013-04-15 16:35:00,
2013-04-15 11:45:00,34.4,24.9,29.99,NW,304,14.0,14.0,68,0.00,,,0.00,Wunderground v.1.15,2013-04-15 16:45:00,
2013-04-15 11:55:00,34.9,25.0,29.99,WNW,286,14.0,21.0,67,0.00,,,0.00,Wunderground v.1.15,2013-04-15 16:55:00,
2013-04-15 12:05:00,35.1,25.6,29.99,West,281,16.0,21.0,68,0.00,,,0.00,Wunderground v.1.15,2013-04-15 17:05:00,
2013-04-15 12:15:00,35.9,26.0,29.99,West,278,16.0,21.0,67,0.00,,,0.00,Wunderground v.1.15,2013-04-15 17:15:00,
2013-04-15 12:20:00,36.6,26.7,29.99,WNW,299,16.0,21.0,67,0.00,,,0.00,Wunderground v.1.15,2013-04-15 17:20:00,
2013-04-15 12:25:00,36.8,26.1,29.99,WNW,287,17.0,21.0,65,0.00,,,0.00,Wunderground v.1.15,2013-04-15 17:25:00,
2013-04-15 12:30:00,37.0,26.7,29.99,NW,307,16.0,21.0,66,0.00,,,0.00,Wunderground v.1.15,2013-04-15 17:30:00,
2013-04-15 12:35:00,37.4,27.4,29.98,West,281,15.0,21.0,67,0.00,,,0.00,Wunderground v.1.15,2013-04-15 17:35:00,
2013-04-15 12:40:00,38.6,28.2,29.98,NNW,341,15.0,15.0,66,0.00,,,0.00,Wunderground v.1.15,2013-04-15 17:40:00,
2013-04-15 12:50:00,38.5,27.7,29.98,WNW,286,14.0,21.0,65,0.00,,,0.00,Wunderground v.1.15,2013-04-15 17:50:00,
2013-04-15 13:00:00,39.1,27.2,29.98,West,273,11.0,21.0,62,0.00,,,0.00,Wunderground v.1.15,2013-04-15 18:00:00,
2013-04-15 13:05:00,39.2,28.0,29.98,NNW,346,13.0,21.0,64,0.00,,,0.00,Wunderground v.1.15,2013-04-15 18:05:00,
2013-04-15 13:15:00,39.6,27.6,29.99,NW,304,14.0,21.0,62,0.00,,,0.00,Wunderground v.1.15,2013-04-15 18:15:00,
2013-04-15 13:20:00,39.8,28.6,29.98,NNW,346,14.0,14.0,64,0.00,,,0.00,Wunderground v.1.15,2013-04-15 18:20:00,
2013-04-15 13:30:00,40.1,27.7,29.98,NW,321,11.0,11.0,61,0.00,,,0.00,Wunderground v.1.15,2013-04-15 18:30:00,
2013-04-15 13:35:00,40.5,28.1,29.98,NW,310,11.0,12.0,61,0.00,,,0.00,Wunderground v.1.15,2013-04-15 18:35:00,
2013-04-15 13:40:00,40.2,27.4,29.98,WNW,300,11.0,21.0,60,0.00,,,0.00,Wunderground v.1.15,2013-04-15 18:40:00,
2013-04-15 13:50:00,40.9,28.5,29.98,NNE,26,11.0,11.0,61,0.00,,,0.00,Wunderground v.1.15,2013-04-15 18:50:00,
2013-04-15 14:00:00,40.8,26.7,29.97,WNW,286,11.0,21.0,57,0.00,,,0.00,Wunderground v.1.15,2013-04-15 19:00:00,
2013-04-15 14:05:00,41.1,28.3,29.97,NW,314,10.0,21.0,60,0.00,,,0.00,Wunderground v.1.15,2013-04-15 19:05:00,
2013-04-15 14:15:00,42.4,28.2,29.97,NNW,345,11.0,21.0,57,0.00,,,0.00,Wunderground v.1.15,2013-04-15 19:15:00,
2013-04-15 14:20:00,42.0,27.9,29.97,NW,319,11.0,21.0,57,0.00,,,0.00,Wunderground v.1.15,2013-04-15 19:20:00,
2013-04-15 14:30:00,42.5,28.3,29.97,NNW,335,9.0,21.0,57,0.00,,,0.00,Wunderground v.1.15,2013-04-15 19:30:00,
2013-04-15 14:40:00,42.8,27.7,29.97,NW,304,10.0,10.0,55,0.00,,,0.00,Wunderground v.1.15,2013-04-15 19:40:00,
2013-04-15 14:50:00,43.0,27.9,29.97,North,355,8.0,21.0,55,0.00,,,0.00,Wunderground v.1.15,2013-04-15 19:50:00,
2013-04-15 15:00:00,43.9,28.3,29.98,NW,306,8.0,8.0,54,0.00,,,0.00,Wunderground v.1.15,2013-04-15 20:00:00,
2013-04-15 15:05:00,44.2,29.9,29.98,WNW,293,10.0,14.0,57,0.00,,,0.00,Wunderground v.1.15,2013-04-15 20:05:00,
2013-04-15 15:10:00,44.7,30.0,29.98,NNE,12,10.0,10.0,56,0.00,,,0.00,Wunderground v.1.15,2013-04-15 20:10:00,
2013-04-15 15:15:00,44.7,28.6,29.98,WNW,297,9.0,12.0,53,0.00,,,0.00,Wunderground v.1.15,2013-04-15 20:15:00,
2013-04-15 15:20:00,44.3,28.7,29.98,NW,307,10.0,21.0,54,0.00,,,0.00,Wunderground v.1.15,2013-04-15 20:20:00,
2013-04-15 15:25:00,43.9,28.3,29.98,West,268,12.0,21.0,54,0.00,,,0.00,Wunderground v.1.15,2013-04-15 20:25:00,
2013-04-15 15:30:00,44.0,27.5,29.98,NW,309,10.0,10.0,52,0.00,,,0.00,Wunderground v.1.15,2013-04-15 20:30:00,
2013-04-15 15:35:00,44.3,27.8,29.99,North,349,8.0,21.0,52,0.00,,,0.00,Wunderground v.1.15,2013-04-15 20:35:00,
2013-04-15 15:40:00,44.2,25.7,29.98,NW,304,9.0,21.0,48,0.00,,,0.00,Wunderground v.1.15,2013-04-15 20:40:00,
2013-04-15 15:50:00,44.4,27.9,29.99,NW,308,8.0,21.0,52,0.00,,,0.00,Wunderground v.1.15,2013-04-15 20:50:00,
2013-04-15 16:00:00,44.9,26.9,29.99,NW,315,10.0,10.0,49,0.00,,,0.00,Wunderground v.1.15,2013-04-15 21:00:00,
2013-04-15 16:05:00,44.6,28.5,29.99,WNW,297,10.0,21.0,53,0.00,,,0.00,Wunderground v.1.15,2013-04-15 21:05:00,
2013-04-15 16:15:00,44.2,26.7,29.98,NNW,342,9.0,21.0,50,0.00,,,0.00,Wunderground v.1.15,2013-04-15 21:15:00,
2013-04-15 16:25:00,44.1,25.6,29.99,WNW,302,10.0,21.0,48,0.00,,,0.00,Wunderground v.1.15,2013-04-15 21:25:00,
2013-04-15 16:30:00,44.8,27.8,29.99,NNW,344,9.0,21.0,51,0.00,,,0.00,Wunderground v.1.15,2013-04-15 21:30:00,
2013-04-15 16:40:00,43.7,27.2,29.99,NNW,336,8.0,8.0,52,0.00,,,0.00,Wunderground v.1.15,2013-04-15 21:40:00,
2013-04-15 16:50:00,43.8,27.3,29.99,North,360,8.0,21.0,52,0.00,,,0.00,Wunderground v.1.15,2013-04-15 21:50:00,
2013-04-15 17:00:00,43.3,25.9,30.00,NNW,333,9.0,9.0,50,0.00,,,0.00,Wunderground v.1.15,2013-04-15 22:00:00,
2013-04-15 17:10:00,43.3,26.4,30.00,NNW,337,9.0,9.0,51,0.00,,,0.00,Wunderground v.1.15,2013-04-15 22:10:00,
2013-04-15 17:20:00,42.6,26.6,30.00,WNW,288,10.0,10.0,53,0.00,,,0.00,Wunderground v.1.15,2013-04-15 22:20:00,
2013-04-15 17:30:00,42.5,26.1,30.00,North,355,8.0,21.0,52,0.00,,,0.00,Wunderground v.1.15,2013-04-15 22:30:00,
2013-04-15 17:35:00,42.4,26.5,30.00,North,350,9.0,21.0,53,0.00,,,0.00,Wunderground v.1.15,2013-04-15 22:35:00,
2013-04-15 17:40:00,42.1,27.1,30.00,North,351,10.0,10.0,55,0.00,,,0.00,Wunderground v.1.15,2013-04-15 22:40:00,
2013-04-15 17:50:00,41.9,26.4,30.01,North,355,10.0,10.0,54,0.00,,,0.00,Wunderground v.1.15,2013-04-15 22:50:00,
2013-04-15 18:00:00,42.1,26.6,30.02,North,9,10.0,10.0,54,0.00,,,0.00,Wunderground v.1.15,2013-04-15 23:00:00,
2013-04-15 18:10:00,41.8,26.8,30.02,North,360,9.0,9.0,55,0.00,,,0.00,Wunderground v.1.15,2013-04-15 23:10:00,
2013-04-15 18:15:00,42.1,26.6,30.02,NNW,333,8.0,18.0,54,0.00,,,0.00,Wunderground v.1.15,2013-04-15 23:15:00,
2013-04-15 18:20:00,42.3,27.3,30.02,NNW,338,8.0,8.0,55,0.00,,,0.00,Wunderground v.1.15,2013-04-15 23:20:00,
2013-04-15 18:30:00,42.0,25.6,30.02,NNW,336,10.0,10.0,52,0.00,,,0.00,Wunderground v.1.15,2013-04-15 23:30:00,
2013-04-15 18:40:00,41.6,26.6,30.03,NNW,332,8.0,8.0,55,0.00,,,0.00,Wunderground v.1.15,2013-04-15 23:40:00,
2013-04-15 18:50:00,40.9,26.8,30.03,North,5,8.0,8.0,57,0.00,,,0.00,Wunderground v.1.15,2013-04-15 23:50:00,
2013-04-15 19:00:00,40.6,26.5,30.03,NNW,342,8.0,8.0,57,0.00,,,0.00,Wunderground v.1.15,2013-04-16 00:00:00,
2013-04-15 19:10:00,40.5,25.6,30.04,North,360,8.0,18.0,55,0.00,,,0.00,Wunderground v.1.15,2013-04-16 00:10:00,
2013-04-15 19:20:00,40.4,26.4,30.05,NW,326,7.0,18.0,57,0.00,,,0.00,Wunderground v.1.15,2013-04-16 00:20:00,
2013-04-15 19:25:00,40.2,26.2,30.05,NW,312,7.0,18.0,57,0.00,,,0.00,Wunderground v.1.15,2013-04-16 00:25:00,
2013-04-15 19:30:00,40.0,26.0,30.05,North,360,7.0,18.0,57,0.00,,,0.00,Wunderground v.1.15,2013-04-16 00:30:00,
2013-04-15 19:40:00,39.6,26.0,30.06,North,355,6.0,18.0,58,0.00,,,0.00,Wunderground v.1.15,2013-04-16 00:40:00,
2013-04-15 19:50:00,39.2,26.5,30.07,North,350,7.0,18.0,60,0.00,,,0.00,Wunderground v.1.15,2013-04-16 00:50:00,
2013-04-15 20:00:00,39.1,26.4,30.08,NNW,338,6.0,18.0,60,0.00,,,0.00,Wunderground v.1.15,2013-04-16 01:00:00,
2013-04-15 20:10:00,38.8,26.5,30.09,NNW,329,6.0,18.0,61,0.00,,,0.00,Wunderground v.1.15,2013-04-16 01:10:00,
2013-04-15 20:15:00,38.6,26.3,30.09,NNW,338,7.0,18.0,61,0.00,,,0.00,Wunderground v.1.15,2013-04-16 01:15:00,
2013-04-15 20:25:00,38.3,26.4,30.10,NNW,342,6.0,18.0,62,0.00,,,0.00,Wunderground v.1.15,2013-04-16 01:25:00,
2013-04-15 20:30:00,38.2,26.3,30.10,NNW,332,6.0,18.0,62,0.00,,,0.00,Wunderground v.1.15,2013-04-16 01:30:00,
2013-04-15 20:40:00,37.9,26.4,30.10,North,355,5.0,18.0,63,0.00,,,0.00,Wunderground v.1.15,2013-04-16 01:40:00,
2013-04-15 20:50:00,37.6,26.1,30.10,North,355,6.0,18.0,63,0.00,,,0.00,Wunderground v.1.15,2013-04-16 01:50:00,
2013-04-15 21:00:00,37.1,26.4,30.10,North,350,4.0,18.0,65,0.00,,,0.00,Wunderground v.1.15,2013-04-16 02:00:00,
2013-04-15 21:10:00,36.7,26.4,30.11,North,355,4.0,18.0,66,0.00,,,0.00,Wunderground v.1.15,2013-04-16 02:10:00,
2013-04-15 21:20:00,36.6,26.7,30.13,North,355,3.0,3.0,67,0.00,,,0.00,Wunderground v.1.15,2013-04-16 02:20:00,
2013-04-15 21:25:00,36.7,26.8,30.13,NNW,338,3.0,18.0,67,0.00,,,0.00,Wunderground v.1.15,2013-04-16 02:25:00,
2013-04-15 21:35:00,36.6,26.7,30.12,NNW,338,3.0,18.0,67,0.00,,,0.00,Wunderground v.1.15,2013-04-16 02:35:00,
2013-04-15 21:40:00,36.6,27.0,30.13,NNW,338,3.0,18.0,68,0.00,,,0.00,Wunderground v.1.15,2013-04-16 02:40:00,
2013-04-15 21:50:00,36.2,27.0,30.14,NNW,338,2.0,18.0,69,0.00,,,0.00,Wunderground v.1.15,2013-04-16 02:50:00,
2013-04-15 22:00:00,36.0,26.8,30.15,NNW,338,1.0,18.0,69,0.00,,,0.00,Wunderground v.1.15,2013-04-16 03:00:00,
2013-04-15 22:10:00,35.9,27.1,30.15,NNW,338,2.0,18.0,70,0.00,,,0.00,Wunderground v.1.15,2013-04-16 03:10:00,
2013-04-15 22:15:00,35.7,26.9,30.15,NNW,338,2.0,18.0,70,0.00,,,0.00,Wunderground v.1.15,2013-04-16 03:15:00,
2013-04-15 22:25:00,35.4,26.9,30.15,NNW,338,3.0,18.0,71,0.00,,,0.00,Wunderground v.1.15,2013-04-16 03:25:00,
2013-04-15 22:30:00,35.3,27.2,30.15,NNW,338,3.0,3.0,72,0.00,,,0.00,Wunderground v.1.15,2013-04-16 03:30:00,
2013-04-15 22:40:00,35.3,27.2,30.16,NNW,338,2.0,18.0,72,0.00,,,0.00,Wunderground v.1.15,2013-04-16 03:40:00,
2013-04-15 22:50:00,35.2,27.4,30.15,NNW,338,2.0,18.0,73,0.00,,,0.00,Wunderground v.1.15,2013-04-16 03:50:00,
2013-04-15 23:00:00,35.0,27.5,30.16,NNW,338,2.0,18.0,74,0.00,,,0.00,Wunderground v.1.15,2013-04-16 04:00:00,
2013-04-15 23:05:00,35.0,27.5,30.15,NNW,338,2.0,18.0,74,0.00,,,0.00,Wunderground v.1.15,2013-04-16 04:05:00,
2013-04-15 23:10:00,34.9,27.5,30.15,NNW,338,2.0,2.0,74,0.00,,,0.00,Wunderground v.1.15,2013-04-16 04:10:00,
2013-04-15 23:15:00,34.8,27.4,30.16,NNW,338,2.0,3.0,74,0.00,,,0.00,Wunderground v.1.15,2013-04-16 04:15:00,
2013-04-15 23:20:00,34.9,27.5,30.16,NNW,338,3.0,18.0,74,0.00,,,0.00,Wunderground v.1.15,2013-04-16 04:20:00,
2013-04-15 23:30:00,34.9,27.5,30.15,NNW,338,2.0,18.0,74,0.00,,,0.00,Wunderground v.1.15,2013-04-16 04:30:00,
2013-04-15 23:40:00,34.8,27.4,30.16,NNW,338,3.0,3.0,74,0.00,,,0.00,Wunderground v.1.15,2013-04-16 04:40:00,
2013-04-15 23:50:00,34.7,27.6,30.17,NNW,338,2.0,18.0,75,0.00,,,0.00,Wunderground v.1.15,2013-04-16 04:50:00,
2013-04-15 23:55:00,34.6,27.5,30.16,NNW,338,2.0,18.0,75,0.00,,,0.00,Wunderground v.1.15,2013-04-16 04:55:00,